Regional Weather Roundup
Issued by NWS

Home | Current Version | Previous Version | Text Only | Print | Product List | Glossary Off
Versions: 1 2 3 4 5 6 7 8 9 10 11 12 13 14 15 16 17 18 19 20 21 22 23 24 25 26 27 28 29 30 31 32 33 34 35 36 37 38 39 40 41 42 43 44 45 46 47 48 49 50

000
ASUS45 KBOU 260607
RWRCO

WEATHER ROUNDUP FOR COLORADO
NATIONAL WEATHER SERVICE DENVER/BOULDER CO
1100 PM MST SUN JAN 25 2015

NOTE: "FAIR" INDICATES FEW OR NO CLOUDS BELOW 12000 FEET WITH NO
SIGNIFICANT WEATHER AND/OR OBSTRUCTIONS TO VISIBILITY.

COZ001>005-013-030-031-260700-
...NORTHWEST COLORADO...

CITY           SKY/WX    TMP DP  RH WIND       PRES   REMARKS
CRAIG          CLEAR     16  14  92 W3        30.43R
HAYDEN         CLEAR     28  21  74 E14       30.43R WCI  17
MEEKER         PTCLDY    23  18  81 N5        30.42R WCI  17
MOUNT WERNER   NOT AVBL
STEAMBOAT SPGS CLEAR     22  21  93 E3        30.44S
WALDEN         CLEAR     23  18  80 E8        30.42R WCI  14
$$

COZ006>008-011-260700-
...WEST CENTRAL VALLEYS...

CITY           SKY/WX    TMP DP  RH WIND       PRES   REMARKS
GRAND JUNCTION CLEAR     32  24  72 SE9       30.36R WCI  24
MONTROSE       CLEAR     26  20  77 SE8       30.39S WCI  18
EAGLE          CLEAR     25  23  93 CALM      30.47R
RIFLE          PTCLDY    29  23  78 E7        30.41R WCI  22
DELTA          CLEAR     30  22  71 CALM      30.39S
NUCLA          CLEAR     34  23  64 E6        30.37F WCI  29
$$

COZ017>023-064>068-260700-
...SOUTHWEST COLORADO...

CITY           SKY/WX    TMP DP  RH WIND       PRES   REMARKS
DURANGO        PTCLDY    27  22  81 NE8       30.34R WCI  19
CORTEZ         CLEAR     27  21  78 NE7       30.32R WCI  19
PAGOSA SPRINGS PTCLDY    25  18  76 CALM      30.36R
TELLURIDE      NOT AVBL
WOLF CREEK PAS NOT AVBL
$$

COZ009-010-012-014-032>034-037-058>063-260700-
...CENTRAL COLORADO...

CITY           SKY/WX    TMP DP  RH WIND       PRES   REMARKS
ASPEN          CLEAR     25  18  74 SW7       30.43S WCI  17
BUENA VISTA    PTCLDY    40  21  46 NW14G23   30.36R
COPPER MTN     CLEAR     32  18  55 NW16G25   30.49F WCI  21
BERTHOUD PASS  FAIR      19  14  79 NW21      30.51R WCI   3
COTTONWOOD PAS PTCLDY    43  12  28 N3        30.42R
GUNNISON       PTCLDY     7   3  85 CALM      30.48S
KREMMLING      PTCLDY    19  16  86 CALM      30.48R
LEADVILLE      CLEAR     27  17  66 NE9       30.44R WCI  18
MONARCH PASS   PTCLDY    32  12  43 NW3       30.59R
SALIDA         PTCLDY    33  21  61 W8        30.44R WCI  26
SUNLIGHT       PTCLDY    30  23  74 CALM        N/A
WILKERSON PASS PTCLDY    32  12  43 N10G16    30.45S WCI  24
$$

COZ069>075-260700-
...SAN LUIS VALLEY/SANGRE DE CRISTO MOUNTAINS...

CITY           SKY/WX    TMP DP  RH WIND       PRES   REMARKS
ALAMOSA        PTCLDY    13   9  84 VRB6      30.36R WCI   4
LA VETA PASS   NOT AVBL
SAGUACHE       PTCLDY    37  23  56 N18G26    30.37S
$$

COZ035-036-038>040-260700-
...NORTHERN COLORADO FRONT RANGE...

CITY           SKY/WX    TMP DP  RH WIND       PRES   REMARKS
DENVER INTL AP CLEAR     41  26  55 SW9       30.21R
DMNS CITY PARK   N/A     41  24  49 S3        30.21S
AURORA         CLEAR     42  24  48 SW8       30.23R
FRONT RANGE AP NOT AVBL
ERIE MUNI ARPT CLEAR     34  26  74 S3        30.20S
BOULDER MUN AP CLEAR     43  25  49 SW3       30.20S
CENTENNIAL     CLEAR     41  25  53 W8        30.23R
BROOMFIELD     CLEAR     46  23  39 W12       30.23R
FORT COLLINS   PTCLDY    37  27  65 CALM      30.21S
LONGMONT       PTCLDY    34  24  66 CALM      30.22R
$$

COZ041-046-047-076>085-087-088-260700-
...PIKES PEAK/PALMER DIVIDE AND SOUTHERN FOOTHILLS...

CITY           SKY/WX    TMP DP  RH WIND       PRES   REMARKS
COLO. SPRINGS  CLEAR     34  24  67 N9        30.26R WCI  27
A. F. ACADEMY  CLEAR     28  23  80 N12       30.26R WCI  18
ELLICOTT       CLEAR    N/A N/A N/A CALM      30.24R
FALCON         CLEAR     35  23  61 NW8       30.27R WCI  28
FORT CARSON    CLEAR     34  24  67 N12       30.23R WCI  26
LIMON          CLEAR     30  26  85 N6        30.22R WCI  24
MONUMENT HILL  CLEAR     36  23  60 NW8       30.27R
TRINIDAD       CLEAR     36  25  64 W10       30.25R
$$

COZ042>045-048>051-090-091-260700-
...NORTHEAST COLORADO...

CITY           SKY/WX    TMP DP  RH WIND       PRES   REMARKS
GREELEY ARPT   PTCLDY    30  21  69 NW5       30.18S WCI  25
AKRON          CLEAR     38  29  70 W14       30.16R
BURLINGTON     CLEAR     36  29  75 W12       30.15S
WRAY           CLEAR     38  32  79 W12       30.11S
STERLING       CLEAR     46  34  61 NW17      30.13S
HOLYOKE        CLEAR     43  32  65 W13G20    30.10S
FORT MORGAN    CLEAR     32  28  83 W8        30.18S WCI  25
$$

COZ086-089-092>099-260700-
...SOUTHEAST COLORADO...

CITY           SKY/WX    TMP DP  RH WIND       PRES   REMARKS
PUEBLO         CLEAR     32  27  81 NW6       30.22R WCI  26
LA JUNTA       CLEAR     41  29  62 VRB5      30.21R
LAMAR          CLEAR     35  30  82 S7        30.18R WCI  29
SPRINGFIELD      N/A     35  27  72 W5        30.20R WCI  31
$$


USA.gov is the U.S. government's official web portal to all federal, state and local government web resources and services.